Location: Carrer del Canonge
(41.4901°N, 2.2931°E)
Time: 09:50:44
(UTC+00:00)

SPOT 3 Rocket - Visible Passes

Search period start: 18 June 2021 00:00
Search period end: 28 June 2021 00:00
Orbit: 779 x 794 km, 98.7° (Epoch: 18 June)

Date Brightness Start Highest point End Pass type
(mag) Time Alt. Az. Time Alt. Az. Time Alt. Az.
18 Jun 3.5 20:30:25 10° SSE 20:35:34 82° ENE 20:40:47 10° NNW visible
18 Jun 6.1 22:13:52 10° WSW 22:15:35 12° W 22:17:18 10° WNW visible
19 Jun 4.1 20:00:20 10° SE 20:05:11 43° ENE 20:10:05 10° N visible
19 Jun 5.5 21:40:42 10° SW 21:44:45 23° W 21:48:50 10° NW visible
20 Jun 4.5 21:09:09 10° S 21:14:03 44° W 21:19:01 10° NNW visible
21 Jun 3.6 20:38:20 10° SSE 20:43:30 85° WSW 20:48:44 10° NNW visible
22 Jun 3.9 20:08:07 10° SE 20:13:05 51° ENE 20:18:07 10° N visible
22 Jun 5.7 21:49:05 10° SW 21:52:46 20° W 21:56:29 10° NW visible
23 Jun 4.7 21:17:17 10° SSW 21:22:03 37° W 21:26:51 10° NNW visible
24 Jun 3.7 20:46:18 10° S 20:51:28 72° WSW 20:56:40 10° NNW visible
25 Jun 3.7 20:15:56 10° SSE 20:21:01 60° ENE 20:26:09 10° N visible
25 Jun 5.9 21:57:34 10° SW 22:00:48 17° W 22:04:03 10° NW visible
26 Jun 5.0 21:25:28 10° SSW 21:30:02 32° W 21:34:40 10° NW visible
27 Jun 4.0 20:54:21 10° S 20:59:25 61° WSW 21:04:35 10° NNW visible
